Lancaster, PA

5:49 AM EDT on June 29, 2017 (GMT -0400)
Lancaster

Weather History for KLNS - January, 2007

Change the Weather History Date:

Friday, January 19, 2007

  Actual Average Record
Temperature  
Mean Temperature 34 °F -  
Max Temperature 41 °F 37 °F 67 °F (1990)
Min Temperature 28 °F 21 °F 3 °F (1997)
Degree Days  
Heating Degree Days 30    
Moisture  
Dew Point 21 °F    
Average Humidity 61    
Maximum Humidity 82    
Minimum Humidity 43    
Precipitation  
Precipitation 0.00 in - - ()
Sea Level Pressure  
Sea Level Pressure 29.92 in    
Wind  
Wind Speed 10 mph (West)    
Max Wind Speed 30 mph    
Max Gust Speed 38 mph    
Visibility 10 miles    
Events      
Averages and records for this station are not official NWS values.
T = Trace of Precipitation, MM = Missing Value Source: NWS Daily Summary

Daily Weather History Graph

Daily Weather History Graph

Search for Another Location

Airport or City:

Trip Planner

Search our weather history database for the weather conditions in past years. The results will help you decide how hot, cold, wet, or windy it might be!

Date:

Astronomy

Jan. 19, 2007 Rise Set
Actual Time 7:23 AM EST 5:08 PM EST
Civil Twilight 6:54 AM EST 5:37 PM EST
Nautical Twilight 6:21 AM EST 6:11 PM EST
Astronomical Twilight 5:48 AM EST 6:43 PM EST
Moon 8:03 AM EST (1/19) 5:46 PM EST (1/19)
Length of Visible Light 10h 43m
Length of Day
9h 44m
New Moon, 0% of the Moon is Illuminated
Jan 19
New Moon
Jan 25
First Quarter
Feb 2
Full
Feb 10
Last Quarter
Feb 17
New

Hourly Weather History & Observations

Time (EST) Temp. Windchill Dew Point Humidity Pressure Visibility Wind Dir Wind Speed Gust Speed Precip Events Conditions
12:53 AM 32.0 °F - 25.0 °F 75% 30.03 in 10.0 mi Calm Calm - N/A   Overcast
1:53 AM 32.0 °F 28.7 °F 25.0 °F 75% 29.99 in 10.0 mi WSW 3.5 mph - N/A   Overcast
2:53 AM 32.0 °F - 25.0 °F 75% 29.97 in 10.0 mi Calm Calm - N/A   Overcast
3:53 AM 32.0 °F - 26.1 °F 79% 29.93 in 10.0 mi Calm Calm - 0.00 in   Overcast
4:53 AM 30.9 °F 26.2 °F 26.1 °F 82% 29.92 in 8.0 mi West 4.6 mph - 0.00 in   Overcast
5:53 AM 30.9 °F 26.2 °F 24.1 °F 76% 29.89 in 10.0 mi SW 4.6 mph - N/A   Overcast
6:53 AM 28.9 °F 25.2 °F 23.0 °F 78% 29.88 in 10.0 mi West 3.5 mph - N/A   Partly Cloudy
7:53 AM 30.0 °F 25.2 °F 25.0 °F 82% 29.87 in 9.0 mi West 4.6 mph - N/A   Overcast
8:53 AM 30.9 °F 23.5 °F 24.1 °F 76% 29.90 in 6.0 mi West 8.1 mph - 0.00 in   Haze
9:53 AM 35.1 °F 25.5 °F 25.0 °F 67% 29.90 in 10.0 mi West 15.0 mph - N/A   Scattered Clouds
10:53 AM 39.9 °F 28.4 °F 19.9 °F 45% 29.89 in 10.0 mi West 29.9 mph 38.0 mph N/A   Scattered Clouds
11:53 AM 39.9 °F 30.0 °F 19.9 °F 45% 29.88 in 10.0 mi West 21.9 mph 32.2 mph N/A   Mostly Cloudy
12:53 PM 41.0 °F 30.2 °F 19.9 °F 43% 29.88 in 10.0 mi WNW 27.6 mph 36.8 mph N/A   Overcast
1:53 PM 41.0 °F 30.5 °F 21.9 °F 47% 29.87 in 10.0 mi WNW 26.5 mph 34.5 mph N/A   Partly Cloudy
2:53 PM 39.9 °F 29.2 °F 19.9 °F 45% 29.86 in 10.0 mi WNW 25.3 mph 36.8 mph N/A   Mostly Cloudy
3:53 PM 37.9 °F 26.3 °F 18.0 °F 45% 29.88 in 10.0 mi WNW 26.5 mph 34.5 mph N/A   Mostly Cloudy
4:53 PM 36.0 °F 23.5 °F 21.0 °F 55% 29.90 in 10.0 mi West 27.6 mph 34.5 mph N/A   Overcast
5:53 PM 34.0 °F 21.3 °F 19.0 °F 54% 29.93 in 10.0 mi West 25.3 mph 29.9 mph N/A   Partly Cloudy
6:53 PM 32.0 °F 18.9 °F 19.0 °F 59% 29.96 in 10.0 mi WNW 24.2 mph 29.9 mph N/A   Scattered Clouds
7:53 PM 32.0 °F 20.5 °F 17.1 °F 54% 29.98 in 10.0 mi West 18.4 mph - N/A   Clear
8:53 PM 32.0 °F 21.2 °F 16.0 °F 52% 29.99 in 10.0 mi West 16.1 mph 24.2 mph N/A   Overcast
9:53 PM 32.0 °F 18.6 °F 16.0 °F 52% 29.97 in 10.0 mi WNW 25.3 mph 33.4 mph 0.00 in   Overcast
10:53 PM 30.9 °F 19.4 °F 15.1 °F 52% 29.96 in 10.0 mi West 17.3 mph - N/A   Clear
11:53 PM 30.0 °F 19.5 °F 16.0 °F 56% 29.94 in 10.0 mi West 13.8 mph - N/A   Mostly Cloudy